Home   Weather   Fairfield   Past weeks
Flag for USA

Past Weather in Fairfield, Oklahoma, USA — Yesterday and Last 2 Weeks

Now
40 °F

Sunny.


Feels Like: 40 °F
Forecast: 60 / 34 °F
Wind: No wind

Location: Drake Field

Current Time: Apr 10, 2020 at 8:37:13 am

Latest Report: Apr 10, 2020 at 7:53 am


Visibility: 10 mi

Pressure: 30.20 "Hg

Humidity: 58%

Dew Point: 26 °F

Location of FairfieldLocation

Past Weather in Fairfield — Graph

°F

Fairfield Temperature Yesterday

Maximum temperature yesterday: 69 °F (at 1:53 pm)
Minimum temperature yesterday: 51 °F (at 10:53 pm)
Average temperature yesterday: 61 °F

High & Low Weather Summary for the Past Weeks

 TemperatureHumidityPressure
High90 °F (Apr 8, 3:53 pm)97% (Apr 3, 6:53 pm)30.22 "Hg (Apr 3, 6:53 pm)
Low39 °F (Apr 10, 6:53 am)20% (Apr 8, 5:53 pm)29.59 "Hg (Mar 27, 7:53 pm)
Average60 °F71%29.94 "Hg
* Reported Mar 26 6:53 am — Apr 10 6:53 am, Fairfield. Weather by CustomWeather, © 2020

Note: Actual official high and low records may vary slightly from our data, if they occured in-between our weather recording intervals... More about our weather records

Fairfield Weather History for the Previous 24 Hours

Scroll right to see more
 ConditionsComfort  
Time TempWeatherWind HumidityBarometerVisibility
6:53 am
Fri, Apr 10
39 °FSunny.No wind53%30.17 "Hg10 mi
5:53 am40 °FClear.No wind53%30.15 "Hg10 mi
4:53 am42 °FClear.No wind45%30.15 "Hg10 mi
3:53 am45 °FClear.No wind44%30.14 "Hg10 mi
2:53 am48 °FClear.5 mph41%30.12 "Hg10 mi
1:53 am49 °FClear.7 mph43%30.11 "Hg10 mi
12:53 am52 °FClear.9 mph37%30.09 "Hg10 mi
11:53 pm
Thu, Apr 9
53 °FClear.3 mph41%30.06 "Hg10 mi
10:53 pm51 °FClear.6 mph56%30.05 "Hg10 mi
9:53 pm57 °FPassing clouds.5 mph36%30.03 "Hg10 mi
8:53 pm57 °FPassing clouds.8 mph36%30.01 "Hg10 mi
7:53 pm59 °FClear.9 mph33%29.98 "Hg10 mi
6:53 pm61 °FSunny.12 mph34%29.99 "Hg10 mi
5:53 pm65 °FSunny.9 mph27%29.98 "Hg10 mi
4:53 pm68 °FSunny.8 mph24%29.97 "Hg10 mi
3:53 pm68 °FSunny.9 mph25%29.98 "Hg10 mi
2:53 pm69 °FPartly sunny.10 mph25%29.99 "Hg10 mi
1:53 pm69 °FSunny.13 mph27%30.02 "Hg10 mi
12:53 pm68 °FSunny.N/A30%30.02 "Hg10 mi
11:53 am65 °FSunny.5 mph34%30.03 "Hg10 mi
10:53 am63 °FSunny.10 mph37%29.99 "Hg10 mi
9:53 am60 °FSunny.9 mph41%30.01 "Hg10 mi
8:53 am58 °FSunny.8 mph50%30.01 "Hg10 mi
Weather by CustomWeather, © 2020

See weather overview

Advertising